Year,Month,Day,Hour,Minute,Value (Times are PST for windspeed in km/hr)
2008,10,04,00,00,0.20
2008,10,04,00,01,0.00
2008,10,04,00,02,1.40
2008,10,04,00,03,0.70
2008,10,04,00,04,0.00
2008,10,04,00,05,1.90
2008,10,04,00,06,1.80
2008,10,04,00,07,2.90
2008,10,04,00,08,3.90
2008,10,04,00,09,0.00
2008,10,04,00,10,0.60
2008,10,04,00,11,0.80
2008,10,04,00,12,4.40
2008,10,04,00,13,3.10
2008,10,04,00,14,0.00
2008,10,04,00,15,3.90
2008,10,04,00,16,4.00
2008,10,04,00,17,4.20
2008,10,04,00,18,0.60
2008,10,04,00,19,3.70
2008,10,04,00,20,1.60
2008,10,04,00,21,1.00
2008,10,04,00,22,0.00
2008,10,04,00,23,0.00
2008,10,04,00,24,1.60
2008,10,04,00,25,3.60
2008,10,04,00,26,1.10
2008,10,04,00,27,0.10
2008,10,04,00,28,1.60
2008,10,04,00,29,2.80
2008,10,04,00,30,2.90
2008,10,04,00,31,3.10
2008,10,04,00,32,0.10
2008,10,04,00,33,0.00
2008,10,04,00,34,2.50
2008,10,04,00,35,1.60
2008,10,04,00,36,1.90
2008,10,04,00,37,0.00
2008,10,04,00,38,1.60
2008,10,04,00,39,1.00
2008,10,04,00,40,3.20
2008,10,04,00,41,2.30
2008,10,04,00,42,0.60
2008,10,04,00,43,0.20
2008,10,04,00,44,2.40
2008,10,04,00,45,0.00
2008,10,04,00,46,0.20
2008,10,04,00,47,1.30
2008,10,04,00,48,3.80
2008,10,04,00,49,1.20
2008,10,04,00,50,1.00
2008,10,04,00,51,0.70
2008,10,04,00,52,1.90
2008,10,04,00,53,0.00
2008,10,04,00,54,1.10
2008,10,04,00,55,0.00
2008,10,04,00,56,0.00
2008,10,04,00,57,0.00
2008,10,04,00,58,0.00
2008,10,04,00,59,0.00
2008,10,04,01,00,0.00
2008,10,04,01,01,0.10
2008,10,04,01,02,1.50
2008,10,04,01,03,0.00
2008,10,04,01,04,2.40
2008,10,04,01,05,0.70
2008,10,04,01,06,1.60
2008,10,04,01,07,2.30
2008,10,04,01,08,0.10
2008,10,04,01,09,0.00
2008,10,04,01,10,0.00
2008,10,04,01,11,0.00
2008,10,04,01,12,1.50
2008,10,04,01,13,0.60
2008,10,04,01,14,0.00
2008,10,04,01,15,0.00
2008,10,04,01,16,0.00
2008,10,04,01,17,0.00
2008,10,04,01,18,0.00
2008,10,04,01,19,0.00
2008,10,04,01,20,0.00
2008,10,04,01,21,0.00
2008,10,04,01,22,0.00
2008,10,04,01,23,0.00
2008,10,04,01,24,0.10
2008,10,04,01,25,0.00
2008,10,04,01,26,0.00
2008,10,04,01,27,1.50
2008,10,04,01,28,0.80
2008,10,04,01,29,0.30
2008,10,04,01,30,0.00
2008,10,04,01,31,0.00
2008,10,04,01,32,1.10
2008,10,04,01,33,0.20
2008,10,04,01,34,0.00
2008,10,04,01,35,0.00
2008,10,04,01,36,2.20
2008,10,04,01,37,0.00
2008,10,04,01,38,0.20
2008,10,04,01,39,0.00
2008,10,04,01,40,0.00
2008,10,04,01,41,2.40
2008,10,04,01,42,1.90
2008,10,04,01,43,1.30
2008,10,04,01,44,0.00
2008,10,04,01,45,0.00
2008,10,04,01,46,0.00
2008,10,04,01,47,2.80
2008,10,04,01,48,0.00
2008,10,04,01,49,0.00
2008,10,04,01,50,0.00
2008,10,04,01,51,1.40
2008,10,04,01,52,4.40
2008,10,04,01,53,0.80
2008,10,04,01,54,2.50
2008,10,04,01,55,4.20
2008,10,04,01,56,3.80
2008,10,04,01,57,1.90
2008,10,04,01,58,0.00
2008,10,04,01,59,0.20
2008,10,04,02,00,3.70
2008,10,04,02,01,4.10
2008,10,04,02,02,1.40
2008,10,04,02,03,1.40
2008,10,04,02,04,0.90
2008,10,04,02,05,0.00
2008,10,04,02,06,2.30
2008,10,04,02,07,0.00
2008,10,04,02,08,0.80
2008,10,04,02,09,1.30
2008,10,04,02,10,0.30
2008,10,04,02,11,0.70
2008,10,04,02,12,3.20
2008,10,04,02,13,0.00
2008,10,04,02,14,0.00
2008,10,04,02,15,0.00
2008,10,04,02,16,1.50
2008,10,04,02,17,0.00
2008,10,04,02,18,0.00
2008,10,04,02,19,1.90
2008,10,04,02,20,2.60
2008,10,04,02,21,4.70
2008,10,04,02,22,2.40
2008,10,04,02,23,5.00
2008,10,04,02,24,3.70
2008,10,04,02,25,1.00
2008,10,04,02,26,2.80
2008,10,04,02,27,2.10
2008,10,04,02,28,2.70
2008,10,04,02,29,3.30
2008,10,04,02,30,0.10
2008,10,04,02,31,0.40
2008,10,04,02,32,0.90
2008,10,04,02,33,3.20
2008,10,04,02,34,3.70
2008,10,04,02,35,1.10
2008,10,04,02,36,2.30
2008,10,04,02,37,0.60
2008,10,04,02,38,2.40
2008,10,04,02,39,1.80
2008,10,04,02,40,2.30
2008,10,04,02,41,3.20
2008,10,04,02,42,3.20
2008,10,04,02,43,2.40
2008,10,04,02,44,0.00
2008,10,04,02,45,0.20
2008,10,04,02,46,0.10
2008,10,04,02,47,0.00
2008,10,04,02,48,1.90
2008,10,04,02,49,2.90
2008,10,04,02,50,0.20
2008,10,04,02,51,6.00
2008,10,04,02,52,4.60
2008,10,04,02,53,4.40
2008,10,04,02,54,3.80
2008,10,04,02,55,4.20
2008,10,04,02,56,0.20
2008,10,04,02,57,0.00
2008,10,04,02,58,1.90
2008,10,04,02,59,0.10
2008,10,04,03,00,0.20
2008,10,04,03,01,1.00
2008,10,04,03,02,1.60
2008,10,04,03,03,0.80
2008,10,04,03,04,1.20
2008,10,04,03,05,2.30
2008,10,04,03,06,2.30
2008,10,04,03,07,3.70
2008,10,04,03,08,2.30
2008,10,04,03,09,5.30
2008,10,04,03,10,3.90
2008,10,04,03,11,2.70
2008,10,04,03,12,5.30
2008,10,04,03,13,2.90
2008,10,04,03,14,0.10
2008,10,04,03,15,0.00
2008,10,04,03,16,0.30
2008,10,04,03,17,1.30
2008,10,04,03,18,3.10
2008,10,04,03,19,1.30
2008,10,04,03,20,0.00
2008,10,04,03,21,0.00
2008,10,04,03,22,0.00
2008,10,04,03,23,2.20
2008,10,04,03,24,0.50
2008,10,04,03,25,0.00
2008,10,04,03,26,0.00
2008,10,04,03,27,0.00
2008,10,04,03,28,0.00
2008,10,04,03,29,0.00
2008,10,04,03,30,0.00
2008,10,04,03,31,0.00
2008,10,04,03,32,0.00
2008,10,04,03,33,0.00
2008,10,04,03,34,0.00
2008,10,04,03,35,1.50
2008,10,04,03,36,2.40
2008,10,04,03,37,0.00
2008,10,04,03,38,0.00
2008,10,04,03,39,0.00
2008,10,04,03,40,0.00
2008,10,04,03,41,0.00
2008,10,04,03,42,0.00
2008,10,04,03,43,0.10
2008,10,04,03,44,0.20
2008,10,04,03,45,1.80
2008,10,04,03,46,0.00
2008,10,04,03,47,3.60
2008,10,04,03,48,3.70
2008,10,04,03,49,2.50
2008,10,04,03,50,1.10
2008,10,04,03,51,1.80
2008,10,04,03,52,1.70
2008,10,04,03,53,0.40
2008,10,04,03,54,0.00
2008,10,04,03,55,1.60
2008,10,04,03,56,1.80
2008,10,04,03,57,0.70
2008,10,04,03,58,0.00
2008,10,04,03,59,0.00
2008,10,04,04,00,0.00
2008,10,04,04,01,0.20
2008,10,04,04,02,0.00
2008,10,04,04,03,5.80
2008,10,04,04,23,0.00
2008,10,04,04,36,0.20
2008,10,04,04,47,0.00
2008,10,04,04,57,0.00
2008,10,04,05,08,0.00
2008,10,04,05,19,3.10
2008,10,04,05,31,0.10
2008,10,04,05,44,0.00
2008,10,04,05,56,0.00
2008,10,04,06,07,0.00
2008,10,04,06,19,0.10
2008,10,04,06,31,0.00
2008,10,04,06,40,0.00
2008,10,04,06,52,0.00
2008,10,04,07,04,3.60
2008,10,04,07,13,3.80
2008,10,04,07,23,0.00
2008,10,04,07,33,0.00
2008,10,04,07,43,0.00
2008,10,04,07,55,0.10
2008,10,04,08,04,0.00
2008,10,04,08,16,0.80
2008,10,04,08,28,2.70
2008,10,04,08,40,0.50
2008,10,04,08,52,1.90
2008,10,04,09,02,3.70
2008,10,04,09,12,0.20
2008,10,04,09,22,0.20
2008,10,04,09,31,0.00
2008,10,04,09,43,2.30
2008,10,04,09,52,0.00
2008,10,04,10,03,1.80
2008,10,04,10,15,4.50
2008,10,04,10,26,0.00
2008,10,04,10,41,0.00
2008,10,04,10,53,0.00
2008,10,04,10,59,0.30
2008,10,04,11,00,0.40
2008,10,04,11,01,2.10
2008,10,04,11,02,2.00
2008,10,04,11,03,1.00
2008,10,04,11,04,0.20
2008,10,04,11,05,2.70
2008,10,04,11,06,0.10
2008,10,04,11,07,0.10
2008,10,04,11,08,0.00
2008,10,04,11,09,0.00
2008,10,04,11,10,0.00
2008,10,04,11,11,0.00
2008,10,04,11,12,0.00
2008,10,04,11,13,0.00
2008,10,04,11,14,0.00
2008,10,04,11,15,0.80
2008,10,04,11,16,2.30
2008,10,04,11,17,0.00
2008,10,04,11,18,0.00
2008,10,04,11,19,0.00
2008,10,04,11,20,0.00
2008,10,04,11,21,0.00
2008,10,04,11,22,0.00
2008,10,04,11,23,0.10
2008,10,04,11,24,0.70
2008,10,04,11,25,0.00
2008,10,04,11,26,1.60
2008,10,04,11,27,0.70
2008,10,04,11,28,0.00
2008,10,04,11,29,0.80
2008,10,04,11,30,0.00
2008,10,04,11,31,0.00
2008,10,04,11,32,0.00
2008,10,04,11,33,0.00
2008,10,04,11,34,0.00
2008,10,04,11,35,0.00
2008,10,04,11,36,0.70
2008,10,04,11,37,2.10
2008,10,04,11,38,2.60
2008,10,04,11,39,1.80
2008,10,04,11,40,2.30
2008,10,04,11,41,1.80
2008,10,04,11,42,2.20
2008,10,04,11,43,3.60
2008,10,04,11,44,0.40
2008,10,04,11,45,0.20
2008,10,04,11,46,0.00
2008,10,04,11,47,0.20
2008,10,04,11,48,0.40
2008,10,04,11,49,0.30
2008,10,04,11,50,0.40
2008,10,04,11,51,0.00
2008,10,04,11,52,0.40
2008,10,04,11,53,1.30
2008,10,04,11,54,0.30
2008,10,04,11,55,0.70
2008,10,04,11,56,0.90
2008,10,04,11,57,3.00
2008,10,04,11,58,3.30
2008,10,04,11,59,2.60
2008,10,04,12,00,2.20
2008,10,04,12,01,2.00
2008,10,04,12,02,2.10
2008,10,04,12,03,1.80
2008,10,04,12,04,0.40
2008,10,04,12,05,3.20
2008,10,04,12,06,0.30
2008,10,04,12,07,4.70
2008,10,04,12,08,3.10
2008,10,04,12,09,3.50
2008,10,04,12,10,4.20
2008,10,04,12,11,5.30
2008,10,04,12,12,2.50
2008,10,04,12,13,2.40
2008,10,04,12,14,4.30
2008,10,04,12,15,3.20
2008,10,04,12,16,3.00
2008,10,04,12,17,4.10
2008,10,04,12,18,4.10
2008,10,04,12,19,4.90
2008,10,04,12,20,4.70
2008,10,04,12,21,3.20
2008,10,04,12,22,6.10
2008,10,04,12,23,4.10
2008,10,04,12,24,3.30
2008,10,04,12,25,2.80
2008,10,04,12,26,2.80
2008,10,04,12,27,3.70
2008,10,04,12,28,3.90
2008,10,04,12,29,4.50
2008,10,04,12,30,1.10
2008,10,04,12,31,2.40
2008,10,04,12,32,1.60
2008,10,04,12,33,1.60
2008,10,04,12,34,2.70
2008,10,04,12,35,0.30
2008,10,04,12,36,0.50
2008,10,04,12,37,3.50
2008,10,04,12,38,2.60
2008,10,04,12,39,3.60
2008,10,04,12,40,1.50
2008,10,04,12,41,2.50
2008,10,04,12,42,0.60
2008,10,04,12,43,1.20
2008,10,04,12,44,1.10
2008,10,04,12,45,1.70
2008,10,04,12,46,0.40
2008,10,04,12,47,0.00
2008,10,04,12,48,0.00
2008,10,04,12,49,0.10
2008,10,04,12,50,0.00
2008,10,04,12,51,0.00
2008,10,04,12,52,1.50
2008,10,04,12,53,1.60
2008,10,04,12,54,2.00
2008,10,04,12,55,1.20
2008,10,04,12,56,2.60
2008,10,04,12,57,0.00
2008,10,04,12,58,0.80
2008,10,04,12,59,1.00
2008,10,04,13,00,0.00
2008,10,04,13,01,0.00
2008,10,04,13,02,0.00
2008,10,04,13,03,0.00
2008,10,04,13,04,0.10
2008,10,04,13,05,2.50
2008,10,04,13,06,1.10
2008,10,04,13,07,0.00
2008,10,04,13,08,0.10
2008,10,04,13,09,0.00
2008,10,04,13,10,0.00
2008,10,04,13,11,0.00
2008,10,04,13,12,0.00
2008,10,04,13,13,0.00
2008,10,04,13,14,0.00
2008,10,04,13,15,0.00
2008,10,04,13,16,0.00
2008,10,04,13,17,0.00
2008,10,04,13,18,0.00
2008,10,04,13,19,0.00
2008,10,04,13,20,0.00
2008,10,04,13,21,0.00
2008,10,04,13,22,0.00
2008,10,04,13,23,0.00
2008,10,04,13,24,0.00
2008,10,04,13,25,0.00
2008,10,04,13,26,0.00
2008,10,04,13,27,0.00
2008,10,04,13,28,0.00
2008,10,04,13,29,0.00
2008,10,04,13,30,0.00
2008,10,04,13,31,0.00
2008,10,04,13,32,0.00
2008,10,04,13,33,0.00
2008,10,04,13,34,0.00
2008,10,04,13,35,0.00
2008,10,04,13,36,0.00
2008,10,04,13,37,0.00
2008,10,04,13,38,0.00
2008,10,04,13,39,0.00
2008,10,04,13,40,0.00
2008,10,04,13,41,0.00
2008,10,04,13,42,0.00
2008,10,04,13,43,0.00
2008,10,04,13,44,0.00
2008,10,04,13,45,0.00
2008,10,04,13,46,0.00
2008,10,04,13,47,0.00
2008,10,04,13,48,0.00
2008,10,04,13,49,0.00
2008,10,04,13,50,0.00
2008,10,04,13,51,0.00
2008,10,04,13,52,0.00
2008,10,04,13,53,0.00
2008,10,04,13,54,0.00
2008,10,04,13,55,0.00
2008,10,04,13,56,0.00
2008,10,04,13,57,0.00
2008,10,04,13,58,0.00
2008,10,04,13,59,0.00
2008,10,04,14,00,0.00
2008,10,04,14,01,0.00
2008,10,04,14,02,0.00
2008,10,04,14,03,0.00
2008,10,04,14,04,0.00
2008,10,04,14,05,0.00
2008,10,04,14,06,0.00
2008,10,04,14,07,0.00
2008,10,04,14,08,0.00
2008,10,04,14,09,0.00
2008,10,04,14,10,0.00
2008,10,04,14,11,0.00
2008,10,04,14,12,0.00
2008,10,04,14,13,0.00
2008,10,04,14,14,0.00
2008,10,04,14,15,0.00
2008,10,04,14,16,0.00
2008,10,04,14,17,0.00
2008,10,04,14,18,0.00
2008,10,04,14,19,0.00
2008,10,04,14,20,0.00
2008,10,04,14,21,0.00
2008,10,04,14,22,0.00
2008,10,04,14,23,0.00
2008,10,04,14,24,0.00
2008,10,04,14,25,0.00
2008,10,04,14,26,0.00
2008,10,04,14,27,0.00
2008,10,04,14,28,0.00
2008,10,04,14,29,1.50
2008,10,04,14,30,2.50
2008,10,04,14,31,1.60
2008,10,04,14,32,2.80
2008,10,04,14,33,0.70
2008,10,04,14,34,0.50
2008,10,04,14,35,3.40
2008,10,04,14,36,3.90
2008,10,04,14,37,5.00
2008,10,04,14,38,5.10
2008,10,04,14,39,5.30
2008,10,04,14,40,1.30
2008,10,04,14,41,5.80
2008,10,04,14,42,10.50
2008,10,04,14,43,13.50
2008,10,04,14,44,4.80
2008,10,04,14,45,8.20
2008,10,04,14,46,5.90
2008,10,04,14,47,4.60
2008,10,04,14,48,5.50
2008,10,04,14,49,1.70
2008,10,04,14,50,8.20
2008,10,04,14,51,7.30
2008,10,04,14,52,5.40
2008,10,04,14,53,12.70
2008,10,04,14,54,12.90
2008,10,04,14,55,9.70
2008,10,04,14,56,2.10
2008,10,04,14,57,14.50
2008,10,04,14,58,9.60
2008,10,04,14,59,4.40
2008,10,04,15,00,4.70
2008,10,04,15,01,14.00
2008,10,04,15,02,8.20
2008,10,04,15,03,10.30
2008,10,04,15,04,18.10
2008,10,04,15,05,9.20
2008,10,04,15,06,5.30
2008,10,04,15,07,3.70
2008,10,04,15,08,7.30
2008,10,04,15,09,1.80
2008,10,04,15,10,6.70
2008,10,04,15,11,9.20
2008,10,04,15,12,3.00
2008,10,04,15,13,3.50
2008,10,04,15,14,25.00
2008,10,04,15,15,11.50
2008,10,04,15,16,9.80
2008,10,04,15,17,13.30
2008,10,04,15,18,9.60
2008,10,04,15,19,13.20
2008,10,04,15,20,6.40
2008,10,04,15,21,15.40
2008,10,04,15,22,7.80
2008,10,04,15,23,13.90
2008,10,04,15,24,5.30
2008,10,04,15,25,10.50
2008,10,04,15,26,19.50
2008,10,04,15,27,7.00
2008,10,04,15,28,10.10
2008,10,04,15,29,4.20
2008,10,04,15,30,11.30
2008,10,04,15,31,14.20
2008,10,04,15,32,9.90
2008,10,04,15,33,5.10
2008,10,04,15,34,7.20
2008,10,04,15,35,3.50
2008,10,04,15,36,9.40
2008,10,04,15,37,5.00
2008,10,04,15,38,14.50
2008,10,04,15,39,12.80
2008,10,04,15,40,6.80
2008,10,04,15,41,10.80
2008,10,04,15,42,10.70
2008,10,04,15,43,7.80
2008,10,04,15,44,7.90
2008,10,04,15,45,12.50
2008,10,04,15,46,6.70
2008,10,04,15,47,6.90
2008,10,04,15,48,6.00
2008,10,04,15,49,6.40
2008,10,04,15,50,2.50
2008,10,04,15,51,7.10
2008,10,04,15,52,3.70
2008,10,04,15,53,11.50
2008,10,04,15,54,6.30
2008,10,04,15,55,4.20
2008,10,04,15,56,6.60
2008,10,04,15,57,6.40
2008,10,04,15,58,10.70
2008,10,04,15,59,5.90
2008,10,04,16,00,10.30
2008,10,04,16,01,16.30
2008,10,04,16,02,7.90
2008,10,04,16,03,27.40
2008,10,04,16,04,12.60
2008,10,04,16,05,11.60
2008,10,04,16,06,12.90
2008,10,04,16,07,5.50
2008,10,04,16,08,12.40
2008,10,04,16,09,4.10
2008,10,04,16,10,2.30
2008,10,04,16,11,13.00
2008,10,04,16,12,9.30
2008,10,04,16,13,3.60
2008,10,04,16,14,13.10
2008,10,04,16,15,6.00
2008,10,04,16,16,15.50
2008,10,04,16,17,14.20
2008,10,04,16,18,11.50
2008,10,04,16,19,3.10
2008,10,04,16,20,1.70
2008,10,04,16,21,9.40
2008,10,04,16,22,9.30
2008,10,04,16,23,14.20
2008,10,04,16,24,11.30
2008,10,04,16,25,11.40
2008,10,04,16,26,6.10
2008,10,04,16,27,7.20
2008,10,04,16,28,8.50
2008,10,04,16,29,12.70
2008,10,04,16,30,23.00
2008,10,04,16,31,13.50
2008,10,04,16,32,15.30
2008,10,04,16,33,11.10
2008,10,04,16,34,8.00
2008,10,04,16,35,6.60
2008,10,04,16,36,11.10
2008,10,04,16,37,17.10
2008,10,04,16,38,4.30
2008,10,04,16,39,10.10
2008,10,04,16,40,6.80
2008,10,04,16,41,7.00
2008,10,04,16,42,10.10
2008,10,04,16,43,10.30
2008,10,04,16,44,15.70
2008,10,04,16,45,13.80
2008,10,04,16,46,12.30
2008,10,04,16,47,17.80
2008,10,04,16,48,6.20
2008,10,04,16,49,7.90
2008,10,04,16,50,6.30
2008,10,04,16,51,8.30
2008,10,04,16,52,8.00
2008,10,04,16,53,13.60
2008,10,04,16,54,15.60
2008,10,04,16,55,19.10
2008,10,04,16,56,9.90
2008,10,04,16,57,22.90
2008,10,04,16,58,10.50
2008,10,04,16,59,16.30
2008,10,04,17,00,18.60
2008,10,04,17,01,10.70
2008,10,04,17,02,17.50
2008,10,04,17,03,5.40
2008,10,04,17,04,10.40
2008,10,04,17,05,15.70
2008,10,04,17,06,9.70
2008,10,04,17,07,15.90
2008,10,04,17,08,13.90
2008,10,04,17,09,3.20
2008,10,04,17,10,7.60
2008,10,04,17,11,7.30
2008,10,04,17,12,6.90
2008,10,04,17,13,11.30
2008,10,04,17,14,7.80
2008,10,04,17,15,7.40
2008,10,04,17,16,6.30
2008,10,04,17,17,18.10
2008,10,04,17,18,16.30
2008,10,04,17,19,12.80
2008,10,04,17,20,12.10
2008,10,04,17,21,11.10
2008,10,04,17,22,13.20
2008,10,04,17,23,9.90
2008,10,04,17,24,2.90
2008,10,04,17,25,18.00
2008,10,04,17,26,5.50
2008,10,04,17,27,17.80
2008,10,04,17,28,5.90
2008,10,04,17,29,12.30
2008,10,04,17,30,8.50
2008,10,04,17,31,8.30
2008,10,04,17,32,7.80
2008,10,04,17,33,11.00
2008,10,04,17,34,6.00
2008,10,04,17,35,11.70
2008,10,04,17,36,3.20
2008,10,04,17,37,5.30
2008,10,04,17,38,6.40
2008,10,04,17,39,19.20
2008,10,04,17,40,16.90
2008,10,04,17,41,8.20
2008,10,04,17,42,5.80
2008,10,04,17,43,11.40
2008,10,04,17,44,7.80
2008,10,04,17,45,10.90
2008,10,04,17,46,8.00
2008,10,04,17,47,8.70
2008,10,04,17,48,14.40
2008,10,04,17,49,5.10
2008,10,04,17,50,9.90
2008,10,04,17,51,14.50
2008,10,04,17,52,17.50
2008,10,04,17,53,26.40
2008,10,04,17,54,17.70
2008,10,04,17,55,6.70
2008,10,04,17,56,5.10
2008,10,04,17,57,7.80
2008,10,04,17,58,12.60
2008,10,04,17,59,15.60
2008,10,04,18,00,15.00
2008,10,04,18,01,15.90
2008,10,04,18,02,12.30
2008,10,04,18,03,4.50
2008,10,04,18,04,10.50
2008,10,04,18,05,4.80
2008,10,04,18,06,14.00
2008,10,04,18,07,10.70
2008,10,04,18,08,15.60
2008,10,04,18,09,9.00
2008,10,04,18,10,4.80
2008,10,04,18,11,7.00
2008,10,04,18,12,16.10
2008,10,04,18,13,4.70
2008,10,04,18,14,11.00
2008,10,04,18,15,6.00
2008,10,04,18,16,13.30
2008,10,04,18,17,6.70
2008,10,04,18,18,8.80
2008,10,04,18,19,10.60
2008,10,04,18,20,12.40
2008,10,04,18,21,12.60
2008,10,04,18,22,5.00
2008,10,04,18,23,2.90
2008,10,04,18,24,18.50
2008,10,04,18,25,5.10
2008,10,04,18,26,7.50
2008,10,04,18,27,4.20
2008,10,04,18,28,7.30
2008,10,04,18,29,19.10
2008,10,04,18,30,14.30
2008,10,04,18,31,5.30
2008,10,04,18,32,16.70
2008,10,04,18,33,9.30
2008,10,04,18,34,2.30
2008,10,04,18,35,5.10
2008,10,04,18,36,8.30
2008,10,04,18,37,6.00
2008,10,04,18,38,4.20
2008,10,04,18,39,2.20
2008,10,04,18,40,7.20
2008,10,04,18,41,2.30
2008,10,04,18,42,3.90
2008,10,04,18,43,6.30
2008,10,04,18,44,8.00
2008,10,04,18,45,5.10
2008,10,04,18,46,6.40
2008,10,04,18,47,3.20
2008,10,04,18,48,8.10
2008,10,04,18,49,6.00
2008,10,04,18,50,16.40
2008,10,04,18,51,13.20
2008,10,04,18,52,7.80
2008,10,04,18,53,6.00
2008,10,04,18,54,9.30
2008,10,04,18,55,5.70
2008,10,04,18,56,12.90
2008,10,04,18,57,2.60
2008,10,04,18,58,13.80
2008,10,04,18,59,11.80
2008,10,04,19,00,4.70
2008,10,04,19,01,4.20
2008,10,04,19,02,4.60
2008,10,04,19,03,7.40
2008,10,04,19,04,4.40
2008,10,04,19,05,3.70
2008,10,04,19,06,11.10
2008,10,04,19,07,10.80
2008,10,04,19,08,3.80
2008,10,04,19,09,2.90
2008,10,04,19,10,8.80
2008,10,04,19,11,10.00
2008,10,04,19,12,9.00
2008,10,04,19,13,3.90
2008,10,04,19,14,9.30
2008,10,04,19,15,13.70
2008,10,04,19,16,10.40
2008,10,04,19,17,5.40
2008,10,04,19,18,12.70
2008,10,04,19,19,8.90
2008,10,04,19,20,22.70
2008,10,04,19,21,2.90
2008,10,04,19,22,3.50
2008,10,04,19,23,3.80
2008,10,04,19,24,3.80
2008,10,04,19,25,6.10
2008,10,04,19,26,5.50
2008,10,04,19,27,7.70
2008,10,04,19,28,3.20
2008,10,04,19,29,3.10
2008,10,04,19,30,6.00
2008,10,04,19,31,8.30
2008,10,04,19,32,9.80
2008,10,04,19,33,5.70
2008,10,04,19,34,4.00
2008,10,04,19,35,12.00
2008,10,04,19,36,9.30
2008,10,04,19,37,8.20
2008,10,04,19,38,8.40
2008,10,04,19,39,8.40
2008,10,04,19,40,2.90
2008,10,04,19,41,3.80
2008,10,04,19,42,6.30
2008,10,04,19,43,3.90
2008,10,04,19,44,1.60
2008,10,04,19,45,5.20
2008,10,04,19,46,3.50
2008,10,04,19,47,2.70
2008,10,04,19,48,6.50
2008,10,04,19,49,6.60
2008,10,04,19,50,4.20
2008,10,04,19,51,1.70
2008,10,04,19,52,7.20
2008,10,04,19,53,4.50
2008,10,04,19,54,2.30
2008,10,04,19,55,4.20
2008,10,04,19,56,3.50
2008,10,04,19,57,0.00
2008,10,04,19,58,2.00
2008,10,04,19,59,4.30
2008,10,04,20,00,2.60
2008,10,04,20,01,4.50
2008,10,04,20,02,2.70
2008,10,04,20,03,4.80
2008,10,04,20,04,4.60
2008,10,04,20,05,3.80
2008,10,04,20,06,10.90
2008,10,04,20,07,5.50
2008,10,04,20,08,9.50
2008,10,04,20,09,7.90
2008,10,04,20,10,0.60
2008,10,04,20,11,3.50
2008,10,04,20,12,8.20
2008,10,04,20,13,2.30
2008,10,04,20,14,3.70
2008,10,04,20,15,8.40
2008,10,04,20,16,3.90
2008,10,04,20,17,4.50
2008,10,04,20,18,4.70
2008,10,04,20,19,11.90
2008,10,04,20,20,6.00
2008,10,04,20,21,2.30
2008,10,04,20,22,8.70
2008,10,04,20,23,6.70
2008,10,04,20,24,3.70
2008,10,04,20,25,9.80
2008,10,04,20,26,4.00
2008,10,04,20,27,5.40
2008,10,04,20,28,2.50
2008,10,04,20,29,9.00
2008,10,04,20,30,5.60
2008,10,04,20,31,4.20
2008,10,04,20,32,4.10
2008,10,04,20,33,9.90
2008,10,04,20,34,12.40
2008,10,04,20,35,8.50
2008,10,04,20,36,3.90
2008,10,04,20,37,3.70
2008,10,04,20,38,2.70
2008,10,04,20,39,6.30
2008,10,04,20,40,2.30
2008,10,04,20,41,6.10
2008,10,04,20,42,5.80
2008,10,04,20,43,4.00
2008,10,04,20,44,5.90
2008,10,04,20,45,8.30
2008,10,04,20,46,8.90
2008,10,04,20,47,7.20
2008,10,04,20,48,3.90
2008,10,04,20,49,2.60
2008,10,04,20,50,3.90
2008,10,04,20,51,3.70
2008,10,04,20,52,5.40
2008,10,04,20,53,3.20
2008,10,04,20,54,7.10
2008,10,04,20,55,6.00
2008,10,04,20,56,8.80
2008,10,04,20,57,4.50
2008,10,04,20,58,5.70
2008,10,04,20,59,14.50
2008,10,04,21,00,2.50
2008,10,04,21,01,0.60
2008,10,04,21,02,3.70
2008,10,04,21,03,3.90
2008,10,04,21,04,5.10
2008,10,04,21,05,1.30
2008,10,04,21,06,3.10
2008,10,04,21,07,10.00
2008,10,04,21,08,4.10
2008,10,04,21,09,4.70
2008,10,04,21,10,0.00
2008,10,04,21,11,7.70
2008,10,04,21,12,3.60
2008,10,04,21,13,6.40
2008,10,04,21,14,6.40
2008,10,04,21,15,1.60
2008,10,04,21,16,0.60
2008,10,04,21,17,3.50
2008,10,04,21,18,7.10
2008,10,04,21,19,2.80
2008,10,04,21,20,2.10
2008,10,04,21,21,0.00
2008,10,04,21,22,0.40
2008,10,04,21,23,6.00
2008,10,04,21,24,1.00
2008,10,04,21,25,0.00
2008,10,04,21,26,1.30
2008,10,04,21,27,2.50
2008,10,04,21,28,3.40
2008,10,04,21,29,5.00
2008,10,04,21,30,1.60
2008,10,04,21,31,0.00
2008,10,04,21,32,2.20
2008,10,04,21,33,2.80
2008,10,04,21,34,0.80
2008,10,04,21,35,3.20
2008,10,04,21,36,5.00
2008,10,04,21,37,0.60
2008,10,04,21,38,0.20
2008,10,04,21,39,11.00
2008,10,04,21,40,4.00
2008,10,04,21,41,1.50
2008,10,04,21,42,11.00
2008,10,04,21,43,3.10
2008,10,04,21,44,3.50
2008,10,04,21,45,4.40
2008,10,04,21,46,12.90
2008,10,04,21,47,3.90
2008,10,04,21,48,10.40
2008,10,04,21,49,11.60
2008,10,04,21,50,7.20
2008,10,04,21,51,0.00
2008,10,04,21,52,7.40
2008,10,04,21,53,8.70
2008,10,04,21,54,0.60
2008,10,04,21,55,2.30
2008,10,04,21,56,1.60
2008,10,04,21,57,2.10
2008,10,04,21,58,0.10
2008,10,04,21,59,3.50
2008,10,04,22,00,1.90
2008,10,04,22,01,5.10
2008,10,04,22,02,1.30
2008,10,04,22,03,0.20
2008,10,04,22,04,1.00
2008,10,04,22,05,1.30
2008,10,04,22,06,0.00
2008,10,04,22,07,2.00
2008,10,04,22,08,0.00
2008,10,04,22,09,2.40
2008,10,04,22,10,3.10
2008,10,04,22,11,0.20
2008,10,04,22,12,1.00
2008,10,04,22,13,0.00
2008,10,04,22,14,5.40
2008,10,04,22,15,7.20
2008,10,04,22,16,5.30
2008,10,04,22,17,5.60
2008,10,04,22,18,4.50
2008,10,04,22,19,4.10
2008,10,04,22,20,0.00
2008,10,04,22,21,0.00
2008,10,04,22,22,0.00
2008,10,04,22,23,0.10
2008,10,04,22,24,0.00
2008,10,04,22,25,0.40
2008,10,04,22,26,0.40
2008,10,04,22,27,0.00
2008,10,04,22,28,0.00
2008,10,04,22,29,0.00
2008,10,04,22,30,0.00
2008,10,04,22,31,0.00
2008,10,04,22,32,1.90
2008,10,04,22,33,1.80
2008,10,04,22,34,0.60
2008,10,04,22,35,0.00
2008,10,04,22,36,0.00
2008,10,04,22,37,0.00
2008,10,04,22,38,1.00
2008,10,04,22,39,1.50
2008,10,04,22,40,0.00
2008,10,04,22,41,3.00
2008,10,04,22,42,4.50
2008,10,04,22,43,4.70
2008,10,04,22,44,1.80
2008,10,04,22,45,0.00
2008,10,04,22,46,4.10
2008,10,04,22,47,3.50
2008,10,04,22,48,1.30
2008,10,04,22,49,2.60
2008,10,04,22,50,0.00
2008,10,04,22,51,0.00
2008,10,04,22,52,1.00
2008,10,04,22,53,1.60
2008,10,04,22,54,2.00
2008,10,04,22,55,4.20
2008,10,04,22,56,0.20
2008,10,04,22,57,0.00
2008,10,04,22,58,0.00
2008,10,04,22,59,0.00
2008,10,04,23,00,0.00
2008,10,04,23,01,1.20
2008,10,04,23,02,2.10
2008,10,04,23,03,0.00
2008,10,04,23,04,0.00
2008,10,04,23,05,0.00
2008,10,04,23,06,0.00
2008,10,04,23,07,0.00
2008,10,04,23,08,0.00
2008,10,04,23,09,0.00
2008,10,04,23,10,0.20
2008,10,04,23,11,0.70
2008,10,04,23,12,0.00
2008,10,04,23,13,0.10
2008,10,04,23,14,0.20
2008,10,04,23,15,0.00
2008,10,04,23,16,2.50
2008,10,04,23,17,2.10
2008,10,04,23,18,6.30
2008,10,04,23,19,3.50
2008,10,04,23,20,2.60
2008,10,04,23,21,1.20
2008,10,04,23,22,0.00
2008,10,04,23,23,0.00
2008,10,04,23,24,2.50
2008,10,04,23,25,1.30
2008,10,04,23,26,0.10
2008,10,04,23,27,0.00
2008,10,04,23,28,0.20
2008,10,04,23,29,0.90
2008,10,04,23,30,0.00
2008,10,04,23,31,0.00
2008,10,04,23,32,0.00
2008,10,04,23,33,0.00
2008,10,04,23,34,0.90
2008,10,04,23,35,1.60
2008,10,04,23,36,1.20
2008,10,04,23,37,0.00
2008,10,04,23,38,0.20
2008,10,04,23,39,0.00
2008,10,04,23,40,2.60
2008,10,04,23,41,0.40
2008,10,04,23,42,0.00
2008,10,04,23,43,0.00
2008,10,04,23,44,0.00
2008,10,04,23,45,0.00
2008,10,04,23,46,0.00
2008,10,04,23,47,1.00
2008,10,04,23,48,0.00
2008,10,04,23,49,1.90
2008,10,04,23,50,2.60
2008,10,04,23,51,1.80
2008,10,04,23,52,1.10
2008,10,04,23,53,0.00
2008,10,04,23,54,1.00
2008,10,04,23,55,2.10
2008,10,04,23,56,3.20
2008,10,04,23,57,1.80
2008,10,04,23,58,2.90
2008,10,04,23,59,1.80
